Overview Statistics Trail Chart Weather Telemetry Raw packets
 

This is the latest recevied weather packets stored in our database for station/object WX5RP. If no packets are shown the sender has not sent any weather packets the latest 10 day(s).

<< 2 3 4 5 6 7 8 >>
Time Temp. Humidity Pressure Rain* Wind** Luminosity Snow
1777927517 23.33° C 29% 1011.2 hPa 0 mm - 1130 W/m² -
1777926916 22.22° C 28% 1011.8 hPa 0 mm - 262 W/m² -
1777926316 23.33° C 26% 1011.9 hPa 0 mm - 237 W/m² -
1777925716 23.33° C 26% 1012.2 hPa 0 mm - 214 W/m² -
1777925116 23.89° C 24% 1011.6 hPa 0 mm - 1098 W/m² -
1777924516 23.89° C 28% 1012.2 hPa 0 mm - 1094 W/m² -
1777923916 22.78° C 27% 1011.6 hPa 0 mm - 1011 W/m² -
1777923316 22.78° C 32% 1011.9 hPa 0 mm - 992 W/m² -
1777922717 22.78° C 30% 1012.1 hPa 0 mm - 788 W/m² -
1777922116 22.78° C 30% 1012.1 hPa 0 mm - 990 W/m² -
1777921516 22.22° C 29% 1012.2 hPa 0 mm - 1016 W/m² -
1777920916 23.33° C 25% 1012.3 hPa 0 mm - 1094 W/m² -
1777920316 22.22° C 25% 1011.7 hPa 0 mm - 1052 W/m² -
1777919716 21.11° C 30% 1011.9 hPa 0 mm - 571 W/m² -
1777919116 22.22° C 31% 1012.2 hPa 0 mm - 678 W/m² -
1777918516 22.22° C 28% 1012.2 hPa 0 mm - 970 W/m² -
1777917916 22.78° C 28% 1012.3 hPa 0 mm - 560 W/m² -
1777917315 21.11° C 32% 1012.8 hPa 0 mm - 868 W/m² -
1777916715 21.11° C 33% 1012.5 hPa 0 mm - 849 W/m² -
1777916116 21.11° C 31% 1012.7 hPa 0 mm - 829 W/m² -
1777915515 20° C 34% 1012.8 hPa 0 mm - 810 W/m² -
1777914915 19.44° C 34% 1012.5 hPa 0 mm - 786 W/m² -
1777914315 18.89° C 34% 1013.1 hPa 0 mm - 765 W/m² -
1777913715 18.89° C 36% 1012.8 hPa 0 mm - 741 W/m² -
1777913115 18.89° C 35% 1013.4 hPa 0 mm - 711 W/m² -

* Rain latest hour (hover to see other rain measurements)
** Current wind speed in m/s (hover to see current wind gust speed)